Christchurch Automated, New Zealand

2:26 AM NZDT on February 15, 2016 (GMT +1300)
Christchurch International

Weather History for NZCH - October, 2013

Change the Weather History Date:

Sunday, October 20, 2013

  Actual Average Record
Temperature  
Mean Temperature 57 °F -  
Max Temperature 73 °F 60 °F 73 °F (1996)
Min Temperature 41 °F 41 °F 32 °F (2014)
Degree Days  
Heating Degree Days 8    
Growing Degree Days 7 (Base 50)    
Moisture  
Dew Point 44 °F    
Average Humidity 67    
Maximum Humidity 100    
Minimum Humidity 35    
Precipitation  
Precipitation 0.00 in - - ()
Sea Level Pressure  
Sea Level Pressure 30.07 in    
Wind  
Wind Speed 5 mph ()    
Max Wind Speed 16 mph    
Max Gust Speed -    
Visibility 6.2 miles    
Events      
Averages and records for this station are not official NWS values.
T = Trace of Precipitation, MM = Missing Value Source: Averaged Metar Reports

Daily Weather History Graph

Daily Weather History Graph

Search for Another Location

Airport or City:

Trip Planner

Search our weather history database for the weather conditions in past years. The results will help you decide how hot, cold, wet, or windy it might be!

Date:

Astronomy

Oct. 20, 2013 Rise Set
Actual Time 6:30 AM NZDT 7:59 PM NZDT
Civil Twilight 6:00 AM NZDT 8:29 PM NZDT
Nautical Twilight 5:24 AM NZDT 9:05 PM NZDT
Astronomical Twilight 4:46 AM NZDT 9:44 PM NZDT
Moon 9:18 PM NZDT (10/20) 6:55 AM NZDT (10/20)
Length of Visible Light 14h 28m
Length of Day
13h 28m
Full, 99% of the Moon is Illuminated
Oct 20
Full
Oct 27
Last Quarter
Nov 4
New
Nov 10
First Quarter
Nov 18
Full

Hourly Weather History & Observations

Time (NZDT) Temp. Windchill Dew Point Humidity Pressure Visibility Wind Dir Wind Speed Gust Speed Precip Events Conditions
12:00 AM 48.2 °F - 44.6 °F 87% 30.12 in 6.2 mi NNW 4.6 mph - N/A   Unknown
12:30 AM 46.4 °F 45.2 °F 42.8 °F 87% 30.12 in 6.2 mi NW 3.5 mph - N/A   Unknown
1:00 AM 44.6 °F 43.1 °F 42.8 °F 93% 30.09 in 6.2 mi NW 3.5 mph - N/A   Unknown
1:30 AM 42.8 °F - 39.2 °F 87% 30.09 in 6.2 mi SSW 1.2 mph - N/A   Unknown
2:00 AM 42.8 °F 41.1 °F 41.0 °F 93% 30.09 in 6.2 mi West 3.5 mph - N/A   Unknown
2:30 AM 42.8 °F - 41.0 °F 93% 30.09 in 6.2 mi NW 1.2 mph - N/A   Unknown
3:00 AM 42.8 °F 41.1 °F 42.8 °F 100% 30.09 in 6.2 mi West 3.5 mph - N/A   Unknown
3:30 AM 41.0 °F - 39.2 °F 93% 30.09 in 6.2 mi WNW 2.3 mph - N/A   Unknown
4:00 AM 42.8 °F - 41.0 °F 93% 30.09 in 6.2 mi Calm Calm - N/A   Unknown
4:30 AM 41.0 °F - 41.0 °F 100% 30.09 in 6.2 mi West 2.3 mph - N/A   Unknown
5:00 AM 42.8 °F 41.1 °F 41.0 °F 93% 30.06 in 6.2 mi NW 3.5 mph - N/A   Unknown
5:30 AM 41.0 °F - 39.2 °F 93% 30.06 in 6.2 mi NNW 2.3 mph - N/A   Unknown
6:00 AM 41.0 °F - 39.2 °F 93% 30.06 in 6.2 mi WNW 1.2 mph - N/A   Unknown
6:30 AM 42.8 °F - 39.2 °F 87% 30.09 in 6.2 mi ESE 1.2 mph - N/A   Unknown
7:00 AM 42.8 °F - 39.2 °F 87% 30.09 in 6.2 mi South 1.2 mph - N/A   Unknown
7:30 AM 42.8 °F - 41.0 °F 93% 30.09 in 6.2 mi SSW 1.2 mph - N/A   Unknown
8:00 AM 46.4 °F 45.2 °F 42.8 °F 87% 30.12 in 6.2 mi SW 3.5 mph - N/A   Unknown
8:30 AM 50.0 °F - 46.4 °F 87% 30.12 in 6.2 mi WSW 1.2 mph - N/A   Unknown
9:00 AM 55.4 °F - 46.4 °F 72% 30.12 in 6.2 mi South 3.5 mph - N/A   Unknown
9:30 AM 57.2 °F - 46.4 °F 67% 30.12 in 6.2 mi SSW 5.8 mph - N/A   Unknown
10:00 AM 60.8 °F - 48.2 °F 63% 30.15 in 6.2 mi SW 5.8 mph - N/A   Unknown
10:30 AM 62.6 °F - 48.2 °F 59% 30.15 in 6.2 mi WSW 5.8 mph - N/A   Unknown
11:00 AM 66.2 °F - 48.2 °F 52% 30.15 in 6.2 mi West 4.6 mph - N/A   Unknown
11:30 AM 68.0 °F - 48.2 °F 49% 30.15 in 6.2 mi West 4.6 mph - N/A   Unknown
12:00 PM 69.8 °F - 48.2 °F 46% 30.12 in 6.2 mi West 3.5 mph - N/A   Unknown
12:30 PM 71.6 °F - 46.4 °F 41% 30.12 in 6.2 mi West 3.5 mph - N/A   Unknown
1:00 PM 71.6 °F - 44.6 °F 38% 30.12 in 6.2 mi NE 5.8 mph - N/A   Unknown
1:30 PM 71.6 °F - 44.6 °F 38% 30.12 in 6.2 mi NE 8.1 mph - N/A   Unknown
2:00 PM 73.4 °F - 48.2 °F 41% 30.09 in 6.2 mi NE 8.1 mph - N/A   Unknown
2:30 PM 73.4 °F - 44.6 °F 36% 30.09 in 6.2 mi NE 11.5 mph - N/A   Unknown
3:00 PM 71.6 °F - 46.4 °F 41% 30.09 in 6.2 mi NE 12.7 mph - N/A   Unknown
3:30 PM 69.8 °F - 41.0 °F 35% 30.06 in 6.2 mi ENE 13.8 mph - N/A   Unknown
4:00 PM 68.0 °F - 44.6 °F 43% 30.06 in 6.2 mi ENE 15.0 mph - N/A   Unknown
4:30 PM 68.0 °F - 44.6 °F 43% 30.06 in 6.2 mi ENE 15.0 mph - N/A   Unknown
5:00 PM 68.0 °F - 42.8 °F 40% 30.04 in 6.2 mi East 15.0 mph - N/A   Unknown
5:30 PM 66.2 °F - 42.8 °F 43% 30.04 in 6.2 mi ENE 16.1 mph - N/A   Unknown
6:00 PM 66.2 °F - 42.8 °F 43% 30.04 in 6.2 mi ENE 13.8 mph - N/A   Unknown
6:30 PM 64.4 °F - 42.8 °F 45% 30.04 in 6.2 mi ENE 13.8 mph - N/A   Unknown
7:00 PM 62.6 °F - 41.0 °F 45% 30.01 in 6.2 mi ENE 11.5 mph - N/A   Unknown
7:30 PM 60.8 °F - 41.0 °F 48% 30.01 in 6.2 mi ENE 11.5 mph - N/A   Unknown
8:00 PM 59.0 °F - 41.0 °F 51% 30.01 in 6.2 mi ENE 11.5 mph - N/A   Unknown
8:30 PM 59.0 °F - 42.8 °F 55% 30.01 in 6.2 mi East 11.5 mph - N/A   Unknown
9:00 PM 57.2 °F - 46.4 °F 67% 30.01 in 6.2 mi East 10.4 mph - N/A   Unknown
9:30 PM 57.2 °F - 46.4 °F 67% 30.01 in 6.2 mi East 6.9 mph - N/A   Unknown
10:00 PM 55.4 °F - 44.6 °F 67% 30.01 in 6.2 mi East 6.9 mph - N/A   Unknown
10:30 PM 53.6 °F - 44.6 °F 72% 29.98 in 6.2 mi ENE 2.3 mph - N/A   Unknown
11:00 PM 51.8 °F - 42.8 °F 71% 29.98 in 6.2 mi Calm Calm - N/A   Unknown
11:30 PM 51.8 °F - 44.6 °F 76% 29.98 in 6.2 mi North 2.3 mph - N/A   Unknown